Карточка аэропорта UHBB

Внимание!
Информация на этой странице в стадии наполнения.
Если вы не увидели какой-то информации, или заметили неточность - пожалуйста сообщите нам!
Спасибо!
Команда RU-STAFF
Название аэропортаИгнатьево
Название аэропорта (англ.)Ignatyevo
Превышение640 ft. (195.1 m.)
Координаты50°25.536', 127°24.72'
Высота перехода900m
Эшелон переходаFL050
Коды ответчика1601-1617
Зона ОрВДХабаровск РПИ (UHHH)
Данные METARUHBB 070930Z 19003MPS 9999 FEW033CB 27/19 Q1001 R18/090060 NOSIG RMK QFE736/0981
Проноз погоды (TAF)UHBB 070752Z 0709/0809 18003MPS 9999 SCT030CB TEMPO 0716/0722 3100 BR SCT011 SCT020CB BECMG 0723/0801 14003G08MPS
NOTAMshow/hide NOTAM
AWOS   TABLE

Информация о ВПП

ВПП Длина ВПП (м.) Покрытие Курс ВПП Частота ILS
182800Асфальтобетон180 
362800Асфальтобетон360108.7

Диспетчерские позиции

Позывной Наименование органа УВД Частота
UHBB_TWRБлаговещенск-Вышка127.2



Спутниковое изображение